Regional Weather Roundup
Issued by NWS

Home | Current Version | Previous Version | Text Only | Print | Product List | Glossary On
Versions: 1 2 3 4 5 6 7 8 9 10 11 12 13 14 15 16 17 18 19 20 21 22 23 24 25 26 27 28 29 30 31 32 33 34 35 36 37 38 39 40 41 42 43 44 45 46 47 48 49 50
000
ASUS46 KPQR 050110
RWROR

OREGON REGIONAL WEATHER ROUNDUP
NATIONAL WEATHER SERVICE PORTLAND OR
600 PM PDT MON MAY 04 2015

NOTE: "FAIR" INDICATES FEW OR NO CLOUDS BELOW 12,000 FEET WITH
NO SIGNIFICANT WEATHER AND/OR OBSTRUCTIONS TO VISIBILITY.

ORZ001>013-050200-
NORTHWEST OREGON


CITY           SKY/WX    TMP DP  RH WIND       PRES   REMARKS
ASTORIA        CLOUDY    53  49  86 S9        30.02S
NEWPORT        CLOUDY    54  45  71 SW9       30.10S
PORTLAND       PTSUNNY   64  44  48 W9        29.97S
VANCOUVER WA   PTSUNNY   63  43  48 NW7       29.96F
SCAPPOOSE      CLOUDY    62  42  47 N3        29.97S
HILLSBORO      CLOUDY    61  41  47 W14       29.98R
AURORA         PTSUNNY   61  43  51 SW9       30.00S
MCMINNVILLE    PTSUNNY   62  44  51 W9        30.01R
SALEM          PTSUNNY   61  42  49 NW12      30.00R
CORVALLIS      SUNNY     61  43  51 NW16      30.02S
EUGENE         PTSUNNY   63  44  50 N6        30.01R
$$

ORZ021-028-050200-
SOUTHWEST OREGON


CITY           SKY/WX    TMP DP  RH WIND       PRES   REMARKS
NORTH BEND     PTSUNNY   55  46  71 W9        30.10R
BROOKINGS      SUNNY     57  45  64 NW20G26   30.04S
ROSEBURG       MOSUNNY   67  41  38 N8        30.00S
SEXTON SUMMIT  SUNNY     55  36  48 MISG      29.99S
MEDFORD        SUNNY     75  41  29 N16       29.89R
$$

ORZ014>016-041-050200-
COLUMBIA GORGE


CITY           SKY/WX    TMP DP  RH WIND       PRES   REMARKS
TROUTDALE      PTSUNNY   63  42  46 SW8       29.95F
THE DALLES     SUNNY     65  38  36 NW22G37   29.88R
$$

ORZ029>031-041-044-049-050-061>064-502-503-505>511-050200-
EASTERN OREGON


CITY           SKY/WX    TMP DP  RH WIND       PRES   REMARKS
REDMOND        SUNNY     67  26  21 NW21G26   29.86R
BEND             N/A    N/A N/A N/A MISG        N/A
PRINEVILLE     SUNNY     66  21  18 W20G28    29.87R
KLAMATH FALLS  MOSUNNY   69  27  20 NW21      29.89S
LAKEVIEW       MOSUNNY   72  32  23 W14G20    29.88F
HERMISTON      SUNNY     76  25  15 W23G29    29.75R
PENDLETON      SUNNY     72  33  24 W17       29.78R
JOHN DAY       PTSUNNY   72  33  23 NW10      29.80R
MEACHAM        FAIR      65  32  29 VRB6      29.87R
LA GRANDE      MOSUNNY   73  34  23 W18       29.76S
BAKER CITY     MOSUNNY   72  38  29 NW10      29.75F
BURNS          MOSUNNY   75  25  15 W17       29.80S
ROME             N/A     77  25  14 S13       29.79R
ONTARIO        FAIR      82  36  19 VRB3      29.70F
$$



USA.gov is the U.S. government's official web portal to all federal, state and local government web resources and services.